Fort Leonard Wood, MO

8:48 AM CDT on June 24, 2017 (GMT -0500)
Waynesville Regional At Forney Field

Weather History for KTBN - April, 2014

Change the Weather History Date:

Friday, April 4, 2014

  Actual Average Record
Temperature  
Mean Temperature 46 °F -  
Max Temperature 52 °F 62 °F 78 °F (2003)
Min Temperature 39 °F 45 °F 27 °F (2015)
Degree Days  
Heating Degree Days 20    
Moisture  
Dew Point 34 °F    
Average Humidity 71    
Maximum Humidity 94    
Minimum Humidity 58    
Precipitation  
Precipitation 0.01 in - - ()
Sea Level Pressure  
Sea Level Pressure 29.97 in    
Wind  
Wind Speed 12 mph (WNW)    
Max Wind Speed 18 mph    
Max Gust Speed 30 mph    
Visibility 10 miles    
Events      
Averages and records for this station are not official NWS values.
T = Trace of Precipitation, MM = Missing Value Source: NWS Daily Summary

Daily Weather History Graph

Daily Weather History Graph

Search for Another Location

Airport or City:

Trip Planner

Search our weather history database for the weather conditions in past years. The results will help you decide how hot, cold, wet, or windy it might be!

Date:

Astronomy

Apr. 04, 2014 Rise Set
Actual Time 6:49 AM CDT 7:34 PM CDT
Civil Twilight 6:22 AM CDT 8:00 PM CDT
Nautical Twilight 5:51 AM CDT 8:32 PM CDT
Astronomical Twilight 5:19 AM CDT 9:04 PM CDT
Moon 10:10 AM CDT (4/4) No Moon Set
Length of Visible Light 13h 37m
Length of Day
12h 44m
Waxing Crescent, 25% of the Moon is Illuminated
Apr 4
Waxing Crescent
Apr 7
First Quarter
Apr 15
Full
Apr 22
Last Quarter
Apr 29
New

Hourly Weather History & Observations

Time (CDT) Temp. Windchill Dew Point Humidity Pressure Visibility Wind Dir Wind Speed Gust Speed Precip Events Conditions
12:58 AM 52.5 °F - 49.6 °F 90% 29.70 in 10.0 mi West 8.1 mph - N/A   Mostly Cloudy
1:33 AM 51.8 °F - 50.0 °F 94% 29.71 in 10.0 mi West 10.4 mph - N/A   Overcast
1:58 AM 51.1 °F - 49.3 °F 94% 29.71 in 10.0 mi WSW 12.7 mph 23.0 mph N/A   Overcast
2:58 AM 48.4 °F - 44.8 °F 87% 29.71 in 10.0 mi West 16.1 mph 29.9 mph 0.01 in   Overcast
3:58 AM 46.0 °F 39.3 °F 41.9 °F 85% 29.75 in 10.0 mi West 16.1 mph 26.5 mph N/A   Overcast
4:58 AM 41.5 °F 34.6 °F 34.9 °F 77% 29.82 in 10.0 mi WNW 12.7 mph 27.6 mph N/A   Overcast
5:58 AM 40.5 °F 32.5 °F 34.0 °F 78% 29.84 in 10.0 mi WNW 15.0 mph 23.0 mph N/A   Overcast
6:33 AM 39.2 °F 31.6 °F 32.0 °F 75% 29.87 in 10.0 mi West 12.7 mph 24.2 mph N/A   Overcast
6:38 AM 39.2 °F 31.2 °F 32.0 °F 75% 29.87 in 10.0 mi West 13.8 mph 24.2 mph N/A   Overcast
6:43 AM 39.2 °F 31.6 °F 32.0 °F 75% 29.87 in 10.0 mi WNW 12.7 mph 21.9 mph N/A   Overcast
6:48 AM 39.2 °F 32.5 °F 32.0 °F 75% 29.88 in 10.0 mi WNW 10.4 mph 19.6 mph N/A   Overcast
6:53 AM 39.2 °F 32.5 °F 32.0 °F 75% 29.88 in 10.0 mi WNW 10.4 mph 21.9 mph N/A   Overcast
6:58 AM 39.6 °F 32.5 °F 32.0 °F 74% 29.88 in 10.0 mi West 11.5 mph 21.9 mph N/A   Overcast
7:58 AM 39.4 °F 33.2 °F 31.3 °F 73% 29.92 in 10.0 mi WNW 9.2 mph 21.9 mph N/A   Overcast
8:58 AM 39.7 °F 33.2 °F 31.5 °F 72% 29.95 in 10.0 mi West 10.4 mph 19.6 mph N/A   Overcast
9:58 AM 40.1 °F 31.0 °F 30.7 °F 69% 29.97 in 10.0 mi WNW 18.4 mph 28.8 mph N/A   Overcast
10:23 AM 41.0 °F 32.2 °F 32.0 °F 70% 29.98 in 10.0 mi WNW 18.4 mph 24.2 mph N/A   Overcast
10:33 AM 41.0 °F 32.2 °F 32.0 °F 70% 29.98 in 10.0 mi WNW 18.4 mph 24.2 mph N/A   Overcast
10:58 AM 40.8 °F 32.3 °F 30.9 °F 68% 30.01 in 10.0 mi WNW 17.3 mph 24.2 mph N/A   Overcast
11:13 AM 41.0 °F 32.2 °F 32.0 °F 70% 30.01 in 10.0 mi West 18.4 mph 28.8 mph N/A   Overcast
11:38 AM 41.0 °F 32.5 °F 32.0 °F 70% 30.02 in 10.0 mi West 17.3 mph 23.0 mph N/A   Overcast
11:58 AM 41.4 °F 34.3 °F 30.9 °F 66% 30.04 in 10.0 mi NW 12.7 mph 21.9 mph N/A   Overcast
12:58 PM 41.9 °F 34.0 °F 31.8 °F 67% 30.05 in 10.0 mi West 16.1 mph 20.7 mph N/A   Overcast
1:18 PM 42.8 °F 35.4 °F 32.0 °F 66% 30.03 in 10.0 mi NW 15.0 mph 23.0 mph N/A   Overcast
1:58 PM 43.3 °F 36.1 °F 31.3 °F 62% 30.06 in 10.0 mi WNW 15.0 mph 23.0 mph N/A   Overcast
2:31 PM 44.6 °F 38.8 °F 32.0 °F 61% 30.04 in 10.0 mi West 11.5 mph 20.7 mph N/A   Overcast
2:58 PM 44.6 °F 38.4 °F 32.2 °F 62% 30.06 in 10.0 mi WNW 12.7 mph 19.6 mph N/A   Overcast
3:58 PM 45.3 °F 39.3 °F 32.9 °F 62% 30.07 in 10.0 mi West 12.7 mph 18.4 mph N/A   Overcast
4:58 PM 45.5 °F 39.6 °F 31.5 °F 58% 30.08 in 10.0 mi NW 12.7 mph - N/A   Overcast
5:58 PM 45.0 °F 38.2 °F 31.5 °F 59% 30.09 in 10.0 mi WNW 15.0 mph 20.7 mph N/A   Overcast
6:58 PM 43.9 °F 38.3 °F 30.6 °F 59% 30.12 in 10.0 mi WNW 10.4 mph - N/A   Overcast
7:58 PM 43.2 °F 39.7 °F 31.5 °F 63% 30.13 in 10.0 mi WNW 5.8 mph - N/A   Overcast
8:58 PM 42.8 °F 40.1 °F 31.6 °F 65% 30.15 in 10.0 mi WNW 4.6 mph - N/A   Overcast
9:58 PM 41.4 °F 37.6 °F 32.4 °F 70% 30.17 in 10.0 mi NNW 5.8 mph - N/A   Mostly Cloudy
10:58 PM 41.0 °F 35.8 °F 31.1 °F 68% 30.18 in 10.0 mi NNW 8.1 mph - N/A   Overcast
11:58 PM 39.6 °F 37.4 °F 28.9 °F 66% 30.19 in 10.0 mi WNW 3.5 mph - N/A   Overcast